KAL711 RKSI-RJAA

Flight info

Callsign KAL711
Flight time N/A
Altitude 33000
Route EGOBA2Y EGOBA Y697 KARBU DCT LANAT Y51 SAMON Y517 ESKAS Y303 ENTAK/N0471F320 Y30 SWAMP
Aircraft A21N/M-SDE2E3FGHIRWXY/LB1

Departure

Time 2026-05-01 10:56
Airport Incheon International Airport (RKSI)

Arrival

Time N/A
Airport Narita International Airport (RJAA)
Time Latitude Longitude Altitude Speed Heading
2026-05-01 10:22 37.47151 126.42806 36 ft 0 kts 161°
2026-05-01 10:40 37.47164 126.42800 40 ft 4 kts 157°
2026-05-01 10:41 37.47188 126.42784 37 ft 4 kts 139°
2026-05-01 10:41 37.47202 126.42760 36 ft 4 kts 95°
2026-05-01 10:41 37.47197 126.42738 37 ft 0 kts 54°
2026-05-01 10:44 37.47223 126.42761 36 ft 10 kts 15°
2026-05-01 10:45 37.47261 126.42751 38 ft 9 kts
2026-05-01 10:45 37.47314 126.42820 38 ft 12 kts 53°
2026-05-01 10:45 37.47364 126.42906 38 ft 12 kts 54°
2026-05-01 10:45 37.47415 126.42997 38 ft 13 kts 55°
2026-05-01 10:46 37.47466 126.43092 38 ft 13 kts 54°
2026-05-01 10:46 37.47523 126.43189 38 ft 14 kts 54°
2026-05-01 10:46 37.47580 126.43291 38 ft 15 kts 56°
2026-05-01 10:46 37.47643 126.43402 38 ft 16 kts 51°
2026-05-01 10:47 37.47708 126.43516 38 ft 8 kts 57°
2026-05-01 10:47 37.47732 126.43582 37 ft 9 kts 99°
2026-05-01 10:47 37.47694 126.43651 36 ft 11 kts 141°
2026-05-01 10:47 37.47622 126.43712 36 ft 15 kts 145°
2026-05-01 10:48 37.47527 126.43798 38 ft 19 kts 145°
2026-05-01 10:48 37.47406 126.43904 38 ft 23 kts 144°
2026-05-01 10:48 37.47266 126.44032 36 ft 26 kts 145°
2026-05-01 10:48 37.47116 126.44162 37 ft 27 kts 145°
2026-05-01 10:49 37.46962 126.44299 36 ft 27 kts 144°
2026-05-01 10:49 37.46804 126.44439 38 ft 28 kts 145°
2026-05-01 10:49 37.46640 126.44583 38 ft 29 kts 144°
2026-05-01 10:49 37.46473 126.44732 38 ft 30 kts 145°
2026-05-01 10:50 37.46325 126.44863 38 ft 24 kts 145°
2026-05-01 10:50 37.46190 126.44983 38 ft 24 kts 144°
2026-05-01 10:50 37.46051 126.45111 38 ft 25 kts 143°
2026-05-01 10:50 37.45907 126.45241 38 ft 26 kts 144°
2026-05-01 10:51 37.45759 126.45374 38 ft 27 kts 146°
2026-05-01 10:51 37.45604 126.45506 37 ft 27 kts 146°
2026-05-01 10:51 37.45506 126.45592 38 ft 15 kts 145°
2026-05-01 10:51 37.45417 126.45670 36 ft 16 kts 144°
2026-05-01 10:52 37.45325 126.45756 38 ft 17 kts 143°
2026-05-01 10:52 37.45333 126.45884 38 ft 18 kts 58°
2026-05-01 10:52 37.45395 126.46005 38 ft 17 kts 57°
2026-05-01 10:52 37.45488 126.46028 38 ft 8 kts 332°
2026-05-01 10:53 37.45493 126.46024 38 ft 0 kts 324°
2026-05-01 10:55 37.45500 126.46018 38 ft 11 kts 324°
2026-05-01 10:55 37.45759 126.45783 36 ft 81 kts 324°
2026-05-01 10:55 37.46412 126.45206 38 ft 147 kts 325°
2026-05-01 10:55 37.47382 126.44327 214 ft 185 kts 320°
2026-05-01 10:56 37.48460 126.43397 894 ft 189 kts 322°
2026-05-01 10:56 37.49574 126.42482 1631 ft 195 kts 324°
2026-05-01 10:56 37.50756 126.41542 2048 ft 210 kts 325°
2026-05-01 10:56 37.52041 126.40500 2445 ft 227 kts 326°
2026-05-01 10:57 37.53376 126.39404 3019 ft 236 kts 325°
2026-05-01 10:57 37.54762 126.38262 3679 ft 240 kts 326°
2026-05-01 10:57 37.56226 126.37213 4334 ft 245 kts 338°
2026-05-01 10:57 37.57866 126.36569 4977 ft 249 kts 345°